QPF
0.00 0.00 0.00 0.00 0.00 0.00 0.00 0.00 0.01 0.01 0.01 0.01 0.01 0.00 0.00 0.00 0.01 0.02 0.02 0.04 0.08 0.09 0.06 0.04 0.03 0.04 0.05 0.04 0.03 0.03 0.03 0.04 0.04 0.05 0.05 0.04 0.02 0.01 0.01 0.01 0.00 0.00 0.00 0.01
0.00 0.00 0.00 0.00 0.00 0.00 0.00 0.00 0.00 0.01 0.01 0.00 0.01 0.01 0.01 0.01 0.01 0.01 0.01 0.02 0.05 0.09 0.07 0.05 0.03 0.03 0.03 0.03 0.02 0.02 0.03 0.03 0.03 0.04 0.04 0.03 0.03 0.02 0.01 0.01 0.00 0.00 0.01 0.01
0.00 0.00 0.00 0.00 0.00 0.00 0.00 0.00 0.01 0.01 0.01 0.01 0.01 0.01 0.01 0.01 0.01 0.01 0.01 0.01 0.02 0.05 0.07 0.05 0.04 0.04 0.03 0.03 0.02 0.02 0.02 0.03 0.03 0.03 0.03 0.03 0.03 0.02 0.02 0.01 0.01 0.01 0.01 0.01
0.00 0.00 0.00 0.01 0.01 0.00 0.00 0.00 0.00 0.00 0.01 0.01 0.01 0.02 0.02 0.02 0.01 0.01 0.02 0.02 0.02 0.04 0.07 0.06 0.05 0.04 0.03 0.02 0.02 0.03 0.03 0.02 0.02 0.03 0.04 0.05 0.04 0.03 0.02 0.02 0.02 0.02 0.02 0.01
0.01 0.00 0.01 0.01 0.01 0.01 0.01 0.01 0.00 0.00 0.01 0.01 0.02 0.02 0.03 0.02 0.02 0.02 0.02 0.03 0.03 0.04 0.06 0.07 0.05 0.04 0.03 0.02 0.01 0.02 0.03 0.03 0.03 0.03 0.04 0.04 0.04 0.02 0.01 0.01 0.01 0.01 0.01 0.01
0.01 0.00 0.01 0.01 0.01 0.01 0.01 0.01 0.01 0.01 0.01 0.01 0.01 0.02 0.02 0.02 0.02 0.03 0.03 0.05 0.07 0.06 0.07 0.07 0.08 0.06 0.05 0.03 0.02 0.02 0.02 0.02 0.03 0.04 0.04 0.03 0.03 0.02 0.01 0.02 0.02 0.02 0.02 0.03
0.01 0.01 0.01 0.01 0.01 0.01 0.01 0.01 0.00 0.01 0.01 0.01 0.02 0.02 0.01 0.02 0.02 0.02 0.04 0.06 0.11 0.08 0.07 0.09 0.10 0.09 0.07 0.04 0.03 0.03 0.03 0.03 0.03 0.02 0.01 0.01 0.00 0.00 0.01 0.01 0.01 0.01 0.01 0.01
0.01 0.01 0.01 0.01 0.01 0.01 0.01 0.00 0.00 0.00 0.01 0.01 0.01 0.01 0.02 0.02 0.02 0.02 0.03 0.06 0.11 0.10 0.09 0.08 0.10 0.10 0.07 0.04 0.03 0.03 0.03 0.03 0.04 0.04 0.02 0.01 0.01 0.01 0.01 0.01 0.01 0.01 0.01 0.01
0.01 0.01 0.01 0.00 0.01 0.01 0.01 0.01 0.00 0.00 0.00 0.00 0.01 0.01 0.01 0.02 0.02 0.03 0.03 0.05 0.08 0.10 0.08 0.08 0.08 0.08 0.07 0.04 0.03 0.03 0.02 0.02 0.02 0.01 0.02 0.01 0.01 0.01 0.01 0.01 0.01 0.01 0.00 0.00
0.01 0.01 0.00 0.00 0.00 0.00 0.00 0.00 0.00 0.00 0.00 0.00 0.00 0.01 0.01 0.01 0.03 0.03 0.02 0.03 0.06 0.08 0.07 0.07 0.08 0.08 0.06 0.04 0.03 0.03 0.02 0.01 0.01 0.01 0.01 0.01 0.00 0.00 0.01 0.01 0.01 0.01 0.01 0.00
0.00 0.00 0.00 0.01 0.01 0.00 0.00 0.00 0.00 0.01 0.01 0.01 0.00 0.01 0.01 0.02 0.02 0.02 0.01 0.02 0.03 0.06 0.07 0.06 0.07 0.07 0.05 0.04 0.02 0.02 0.02 0.01 0.01 0.01 0.01 0.01 0.01 0.00 0.00 0.00 0.01 0.01 0.00 0.00
0.00 0.00 0.01 0.02 0.01 0.01 0.01 0.00 0.01 0.01 0.01 0.00 0.00 0.00 0.01 0.01 0.02 0.01 0.01 0.02 0.02 0.04 0.05 0.06 0.06 0.06 0.04 0.02 0.02 0.02 0.01 0.01 0.02 0.02 0.01 0.01 0.01 0.00 0.00 0.00 0.00 0.00 0.00 0.00
0.00 0.00 0.01 0.02 0.01 0.01 0.01 0.00 0.00 0.00 0.00 0.00 0.00 0.00 0.00 0.01 0.01 0.01 0.01 0.01 0.01 0.02 0.03 0.04 0.05 0.05 0.05 0.03 0.02 0.01 0.01 0.02 0.02 0.02 0.01 0.01 0.01 0.01 0.00 0.00 0.00 0.00 0.00 0.00
0.01 0.00 0.01 0.01 0.01 0.01 0.00 0.00 0.00 0.00 0.00 0.00 0.00 0.00 0.00 0.00 0.00 0.00 0.00 0.01 0.01 0.01 0.02 0.03 0.04 0.04 0.04 0.03 0.02 0.01 0.01 0.01 0.01 0.01 0.01 0.01 0.01 0.01 0.00 0.00 0.00 0.00 0.00 0.00
0.01 0.01 0.01 0.01 0.01 0.01 0.00 0.00 0.00 0.00 0.00 0.00 0.00 0.00 0.00 0.00 0.00 0.00 0.00 0.00 0.00 0.00 0.01 0.02 0.02 0.03 0.03 0.03 0.02 0.01 0.01 0.00 0.01 0.01 0.01 0.00 0.00 0.00 0.00 0.00 0.00 0.00 0.00 0.01
0.01 0.01 0.01 0.00 0.00 0.00 0.00 0.00 0.00 0.00 0.00 0.00 0.00 0.00 0.00 0.00 0.00 0.00 0.00 0.00 0.00 0.00 0.00 0.01 0.01 0.02 0.03 0.03 0.02 0.02 0.01 0.01 0.01 0.00 0.00 0.00 0.00 0.00 0.00 0.00 0.00 0.00 0.00 0.01
0.01 0.01 0.00 0.00 0.00 0.00 0.00 0.00 0.00 0.00 0.00 0.00 0.00 0.00 0.00 0.00 0.00 0.00 0.00 0.00 0.00 0.00 0.00 0.01 0.01 0.01 0.03 0.04 0.02 0.01 0.01 0.00 0.00 0.00 0.00 0.00 0.00 0.00 0.00 0.00 0.00 0.00 0.00 0.01
0.00 0.00 0.00 0.00 0.00 0.00 0.00 0.00 0.00 0.00 0.00 0.00 0.00 0.00 0.00 0.01 0.01 0.00 0.00 0.00 0.00 0.00 0.00 0.00 0.01 0.02 0.03 0.05 0.03 0.00 0.00 0.00 0.00 0.00 0.00 0.00 0.00 0.00 0.00 0.00 0.00 0.00 0.01 0.01
0.00 0.00 0.00 0.00 0.00 0.00 0.00 0.00 0.00 0.00 0.00 0.00 0.00 0.01 0.00 0.01 0.01 0.00 0.00 0.00 0.01 0.00 0.00 0.01 0.01 0.01 0.03 0.03 0.02 0.00 0.00 0.00 0.00 0.00 0.00 0.00 0.00 0.00 0.00 0.00 0.00 0.00 0.01 0.01
0.00 0.00 0.00 0.00 0.00 0.00 0.00 0.00 0.00 0.00 0.00 0.00 0.00 0.00 0.00 0.01 0.01 0.00 0.00 0.00 0.00 0.00 0.01 0.01 0.00 0.01 0.02 0.01 0.01 0.00 0.00 0.00 0.00 0.00 0.00 0.00 0.00 0.00 0.00 0.00 0.00 0.00 0.00 0.00
0.00 0.00 0.00 0.00 0.00 0.00 0.00 0.00 0.00 0.00 0.01 0.00 0.00 0.00 0.00 0.00 0.00 0.00 0.00 0.00 0.00 0.00 0.01 0.01 0.00 0.01 0.01 0.00 0.00 0.00 0.00 0.00 0.00 0.00 0.00 0.00 0.00 0.00 0.00 0.00 0.00 0.00 0.00 0.00
0.00 0.00 0.00 0.00 0.00 0.00 0.00 0.00 0.00 0.00 0.00 0.00 0.00 0.00 0.00 0.00 0.00 0.00 0.00 0.00 0.00 0.00 0.00 0.00 0.00 0.00 0.00 0.00 0.00 0.00 0.00 0.00 0.00 0.00 0.00 0.00 0.00 0.00 0.00 0.00 0.00 0.00 0.00 0.00
0.00 0.00 0.00 0.00 0.00 0.00 0.00 0.00 0.00 0.00 0.00 0.00 0.00 0.00 0.00 0.00 0.00 0.00 0.00 0.00 0.00 0.00 0.00 0.00 0.00 0.00 0.00 0.00 0.00 0.00 0.00 0.00 0.00 0.00 0.00 0.00 0.00 0.00 0.00 0.00 0.00 0.00 0.00 0.00
0.00 0.00 0.00 0.00 0.00 0.00 0.00 0.00 0.00 0.00 0.00 0.00 0.00 0.00 0.00 0.00 0.00 0.00 0.00 0.00 0.01 0.01 0.00 0.00 0.00 0.01 0.00 0.00 0.00 0.00 0.00 0.00 0.00 0.00 0.00 0.00 0.00 0.00 0.00 0.00 0.00 0.00 0.00 0.00
0.00 0.00 0.00 0.00 0.00 0.00 0.00 0.00 0.00 0.00 0.00 0.00 0.00 0.00 0.00 0.00 0.00 0.00 0.00 0.00 0.01 0.00 0.00 0.00 0.00 0.00 0.00 0.00 0.00 0.00 0.00 0.00 0.00 0.00 0.00 0.00 0.00 0.00 0.00 0.00 0.00 0.00 0.01 0.01
0.01 0.01 0.00 0.00 0.00 0.00 0.00 0.00 0.00 0.00 0.00 0.00 0.00 0.00 0.00 0.00 0.00 0.00 0.00 0.00 0.00 0.00 0.00 0.00 0.00 0.00 0.00 0.00 0.00 0.01 0.01 0.01 0.01 0.01 0.00 0.00 0.00 0.00 0.00 0.00 0.01 0.01 0.01 0.01
0.01 0.01 0.01 0.00 0.00 0.00 0.00 0.00 0.00 0.00 0.00 0.00 0.00 0.00 0.00 0.00 0.00 0.00 0.00 0.00 0.00 0.00 0.00 0.00 0.01 0.01 0.00 0.00 0.01 0.01 0.00 0.00 0.00 0.00 0.00 0.00 0.00 0.00 0.01 0.01 0.01 0.01 0.01 0.01
MSLP
1014.53 1014.76 1014.93 1015.08 1015.23 1015.38 1015.56 1015.76 1015.98 1016.22 1016.49 1016.77 1017.09 1017.42 1017.77 1018.14 1018.50 1018.82 1019.09 1019.28 1019.37 1019.34 1019.20 1018.97 1018.67 1018.32 1017.98 1017.65 1017.38 1017.18 1017.04 1016.98 1016.97 1017.00 1017.07 1017.16 1017.26 1017.36 1017.46 1017.55 1017.62 1017.67 1017.70 1017.70
1014.93 1015.12 1015.22 1015.27 1015.29 1015.34 1015.43 1015.59 1015.82 1016.13 1016.51 1016.95 1017.43 1017.92 1018.40 1018.84 1019.22 1019.52 1019.73 1019.83 1019.82 1019.70 1019.51 1019.25 1018.95 1018.65 1018.35 1018.10 1017.89 1017.74 1017.64 1017.60 1017.60 1017.64 1017.71 1017.81 1017.92 1018.05 1018.17 1018.29 1018.39 1018.46 1018.49 1018.49
1015.27 1015.41 1015.44 1015.41 1015.35 1015.32 1015.37 1015.53 1015.80 1016.20 1016.70 1017.28 1017.90 1018.51 1019.08 1019.58 1019.96 1020.22 1020.35 1020.35 1020.24 1020.05 1019.79 1019.51 1019.22 1018.94 1018.70 1018.50 1018.34 1018.23 1018.16 1018.12 1018.12 1018.16 1018.22 1018.32 1018.44 1018.58 1018.74 1018.89 1019.02 1019.12 1019.19 1019.21
1015.53 1015.62 1015.59 1015.50 1015.40 1015.35 1015.39 1015.58 1015.92 1016.41 1017.02 1017.71 1018.44 1019.14 1019.77 1020.28 1020.64 1020.84 1020.89 1020.81 1020.62 1020.35 1020.06 1019.76 1019.48 1019.24 1019.04 1018.88 1018.77 1018.68 1018.62 1018.59 1018.57 1018.59 1018.64 1018.73 1018.85 1019.01 1019.19 1019.38 1019.55 1019.69 1019.80 1019.85
1015.68 1015.72 1015.65 1015.53 1015.43 1015.39 1015.48 1015.72 1016.13 1016.71 1017.41 1018.19 1018.98 1019.73 1020.38 1020.87 1021.20 1021.35 1021.33 1021.17 1020.92 1020.61 1020.30 1020.00 1019.74 1019.54 1019.38 1019.27 1019.19 1019.12 1019.07 1019.03 1019.00 1019.00 1019.04 1019.11 1019.23 1019.40 1019.60 1019.82 1020.03 1020.21 1020.35 1020.43
1015.70 1015.70 1015.61 1015.50 1015.43 1015.44 1015.59 1015.91 1016.40 1017.05 1017.82 1018.65 1019.47 1020.23 1020.86 1021.33 1021.60 1021.70 1021.62 1021.42 1021.14 1020.82 1020.51 1020.23 1020.01 1019.85 1019.74 1019.67 1019.62 1019.58 1019.53 1019.49 1019.45 1019.44 1019.46 1019.53 1019.65 1019.82 1020.03 1020.26 1020.50 1020.70 1020.86 1020.96
1015.55 1015.53 1015.46 1015.40 1015.39 1015.48 1015.72 1016.12 1016.69 1017.40 1018.21 1019.06 1019.88 1020.61 1021.20 1021.62 1021.84 1021.89 1021.78 1021.56 1021.27 1020.97 1020.68 1020.45 1020.28 1020.17 1020.11 1020.08 1020.07 1020.05 1020.02 1019.98 1019.95 1019.93 1019.94 1020.00 1020.12 1020.30 1020.51 1020.75 1020.98 1021.19 1021.35 1021.44
1015.21 1015.20 1015.19 1015.20 1015.29 1015.49 1015.84 1016.33 1016.97 1017.73 1018.55 1019.39 1020.18 1020.86 1021.40 1021.76 1021.94 1021.96 1021.83 1021.61 1021.35 1021.08 1020.84 1020.66 1020.55 1020.49 1020.48 1020.50 1020.51 1020.52 1020.52 1020.50 1020.47 1020.46 1020.49 1020.55 1020.67 1020.84 1021.05 1021.27 1021.49 1021.68 1021.81 1021.87
1014.68 1014.73 1014.80 1014.92 1015.14 1015.47 1015.93 1016.51 1017.22 1018.00 1018.83 1019.64 1020.38 1021.00 1021.48 1021.79 1021.93 1021.93 1021.81 1021.61 1021.39 1021.17 1020.99 1020.88 1020.82 1020.81 1020.84 1020.89 1020.94 1020.98 1021.00 1021.00 1021.01 1021.02 1021.06 1021.14 1021.26 1021.42 1021.61 1021.81 1021.99 1022.14 1022.22 1022.23
1014.01 1014.14 1014.32 1014.58 1014.93 1015.39 1015.97 1016.65 1017.41 1018.21 1019.02 1019.79 1020.48 1021.04 1021.46 1021.72 1021.85 1021.84 1021.75 1021.59 1021.42 1021.27 1021.15 1021.09 1021.08 1021.11 1021.18 1021.26 1021.33 1021.39 1021.44 1021.47 1021.50 1021.55 1021.61 1021.71 1021.83 1021.98 1022.15 1022.31 1022.44 1022.53 1022.55 1022.51
1013.24 1013.47 1013.78 1014.18 1014.68 1015.28 1015.97 1016.72 1017.53 1018.34 1019.12 1019.85 1020.47 1020.98 1021.35 1021.59 1021.71 1021.73 1021.67 1021.57 1021.47 1021.38 1021.33 1021.31 1021.34 1021.40 1021.48 1021.57 1021.66 1021.73 1021.80 1021.86 1021.92 1022.00 1022.09 1022.20 1022.33 1022.47 1022.60 1022.72 1022.80 1022.82 1022.79 1022.69
1012.43 1012.78 1013.22 1013.76 1014.40 1015.12 1015.90 1016.72 1017.55 1018.36 1019.12 1019.80 1020.37 1020.83 1021.17 1021.40 1021.54 1021.59 1021.60 1021.57 1021.53 1021.51 1021.51 1021.54 1021.59 1021.66 1021.74 1021.83 1021.91 1021.99 1022.07 1022.15 1022.23 1022.33 1022.44 1022.56 1022.69 1022.82 1022.92 1022.99 1023.02 1022.99 1022.90 1022.76
1011.64 1012.10 1012.67 1013.34 1014.10 1014.92 1015.78 1016.64 1017.48 1018.28 1019.00 1019.64 1020.17 1020.60 1020.93 1021.17 1021.33 1021.44 1021.52 1021.56 1021.60 1021.65 1021.70 1021.75 1021.82 1021.89 1021.96 1022.03 1022.10 1022.17 1022.24 1022.33 1022.42 1022.54 1022.66 1022.79 1022.91 1023.02 1023.09 1023.12 1023.10 1023.02 1022.89 1022.71
1010.90 1011.46 1012.14 1012.93 1013.78 1014.68 1015.59 1016.48 1017.32 1018.09 1018.78 1019.37 1019.87 1020.29 1020.62 1020.88 1021.10 1021.27 1021.42 1021.55 1021.67 1021.77 1021.87 1021.95 1022.03 1022.09 1022.14 1022.18 1022.23 1022.28 1022.34 1022.42 1022.51 1022.63 1022.75 1022.88 1022.99 1023.07 1023.11 1023.10 1023.03 1022.92 1022.76 1022.56
1010.21 1010.87 1011.64 1012.51 1013.44 1014.40 1015.34 1016.23 1017.06 1017.81 1018.47 1019.03 1019.51 1019.91 1020.26 1020.56 1020.83 1021.08 1021.30 1021.51 1021.70 1021.87 1022.01 1022.12 1022.20 1022.25 1022.29 1022.30 1022.32 1022.34 1022.38 1022.44 1022.53 1022.63 1022.74 1022.85 1022.93 1022.98 1022.99 1022.95 1022.85 1022.71 1022.52 1022.32
1009.56 1010.29 1011.15 1012.09 1013.08 1014.07 1015.03 1015.93 1016.74 1017.47 1018.09 1018.63 1019.10 1019.51 1019.87 1020.22 1020.54 1020.86 1021.16 1021.45 1021.70 1021.93 1022.11 1022.24 1022.33 1022.38 1022.40 1022.39 1022.38 1022.38 1022.39 1022.43 1022.49 1022.57 1022.65 1022.73 1022.78 1022.80 1022.77 1022.69 1022.56 1022.40 1022.21 1022.01
1008.92 1009.73 1010.65 1011.65 1012.69 1013.71 1014.68 1015.58 1016.38 1017.08 1017.69 1018.21 1018.67 1019.09 1019.49 1019.87 1020.25 1020.62 1020.99 1021.34 1021.66 1021.93 1022.15 1022.31 1022.41 1022.46 1022.47 1022.45 1022.42 1022.40 1022.39 1022.40 1022.43 1022.47 1022.52 1022.55 1022.56 1022.54 1022.47 1022.35 1022.20 1022.02 1021.83 1021.64
1008.28 1009.16 1010.15 1011.20 1012.28 1013.32 1014.31 1015.20 1015.99 1016.68 1017.28 1017.80 1018.26 1018.69 1019.11 1019.53 1019.95 1020.38 1020.79 1021.19 1021.55 1021.87 1022.12 1022.30 1022.42 1022.47 1022.49 1022.46 1022.43 1022.39 1022.36 1022.35 1022.34 1022.35 1022.35 1022.34 1022.30 1022.22 1022.11 1021.96 1021.79 1021.60 1021.40 1021.22
1007.65 1008.59 1009.64 1010.74 1011.85 1012.92 1013.91 1014.81 1015.60 1016.29 1016.88 1017.40 1017.87 1018.32 1018.76 1019.21 1019.66 1020.12 1020.57 1021.00 1021.39 1021.72 1022.00 1022.20 1022.34 1022.41 1022.43 1022.42 1022.39 1022.34 1022.30 1022.26 1022.23 1022.20 1022.15 1022.09 1022.00 1021.88 1021.72 1021.54 1021.34 1021.13 1020.93 1020.75
1007.05 1008.06 1009.16 1010.30 1011.43 1012.52 1013.52 1014.42 1015.21 1015.89 1016.49 1017.02 1017.51 1017.97 1018.43 1018.89 1019.36 1019.83 1020.30 1020.74 1021.14 1021.49 1021.78 1022.00 1022.15 1022.24 1022.29 1022.29 1022.27 1022.23 1022.19 1022.14 1022.08 1022.01 1021.93 1021.82 1021.68 1021.51 1021.31 1021.09 1020.87 1020.64 1020.43 1020.25
1006.53 1007.60 1008.73 1009.90 1011.04 1012.12 1013.12 1014.02 1014.81 1015.50 1016.10 1016.64 1017.14 1017.62 1018.09 1018.56 1019.03 1019.50 1019.97 1020.40 1020.80 1021.15 1021.44 1021.67 1021.85 1021.96 1022.03 1022.05 1022.05 1022.03 1022.00 1021.94 1021.87 1021.78 1021.66 1021.51 1021.33 1021.12 1020.89 1020.64 1020.39 1020.15 1019.93 1019.74
1006.15 1007.24 1008.39 1009.55 1010.68 1011.75 1012.72 1013.61 1014.39 1015.08 1015.69 1016.24 1016.75 1017.24 1017.71 1018.18 1018.65 1019.11 1019.56 1019.98 1020.37 1020.70 1020.99 1021.23 1021.41 1021.55 1021.64 1021.70 1021.73 1021.73 1021.71 1021.66 1021.59 1021.49 1021.35 1021.17 1020.96 1020.72 1020.46 1020.19 1019.92 1019.66 1019.43 1019.23
1005.90 1007.00 1008.14 1009.26 1010.35 1011.38 1012.32 1013.17 1013.94 1014.62 1015.23 1015.79 1016.31 1016.80 1017.28 1017.75 1018.21 1018.65 1019.07 1019.47 1019.83 1020.15 1020.43 1020.67 1020.86 1021.02 1021.14 1021.22 1021.28 1021.31 1021.32 1021.29 1021.22 1021.11 1020.97 1020.78 1020.55 1020.30 1020.02 1019.73 1019.45 1019.19 1018.94 1018.73
1005.80 1006.87 1007.96 1009.03 1010.05 1011.02 1011.90 1012.71 1013.45 1014.11 1014.72 1015.28 1015.81 1016.31 1016.79 1017.25 1017.69 1018.11 1018.51 1018.88 1019.21 1019.51 1019.78 1020.00 1020.20 1020.37 1020.51 1020.63 1020.72 1020.78 1020.81 1020.80 1020.75 1020.65 1020.51 1020.32 1020.09 1019.83 1019.55 1019.26 1018.97 1018.70 1018.45 1018.22
1005.79 1006.81 1007.82 1008.81 1009.75 1010.63 1011.45 1012.21 1012.91 1013.55 1014.15 1014.72 1015.25 1015.75 1016.23 1016.69 1017.12 1017.52 1017.89 1018.23 1018.53 1018.80 1019.05 1019.26 1019.46 1019.63 1019.79 1019.93 1020.04 1020.13 1020.18 1020.19 1020.16 1020.07 1019.94 1019.76 1019.54 1019.29 1019.01 1018.73 1018.44 1018.17 1017.92 1017.68
1005.81 1006.75 1007.68 1008.57 1009.42 1010.21 1010.96 1011.67 1012.33 1012.96 1013.55 1014.11 1014.65 1015.16 1015.64 1016.09 1016.51 1016.88 1017.23 1017.53 1017.80 1018.05 1018.27 1018.47 1018.65 1018.82 1018.98 1019.13 1019.26 1019.36 1019.42 1019.45 1019.43 1019.36 1019.24 1019.07 1018.86 1018.62 1018.36 1018.09 1017.82 1017.56 1017.31 1017.06
1005.77 1006.63 1007.46 1008.26 1009.02 1009.74 1010.43 1011.09 1011.72 1012.33 1012.92 1013.49 1014.04 1014.55 1015.03 1015.48 1015.88 1016.23 1016.55 1016.82 1017.06 1017.27 1017.46 1017.63 1017.80 1017.95 1018.11 1018.25 1018.37 1018.47 1018.54 1018.57 1018.56 1018.50 1018.39 1018.23 1018.03 1017.81 1017.57 1017.31 1017.06 1016.81 1016.57 1016.33
Thickness
5678 5684 5685 5683 5681 5677 5672 5667 5659 5665 5665 5671 5672 5668 5665 5662 5658 5654 5649 5646 5643 5639 5635 5632 5629 5626 5623 5619 5616 5613 5609 5605 5600 5596 5592 5588 5584 5581 5578 5575 5573 5570 5568 5566
5675 5681 5681 5677 5679 5678 5674 5671 5667 5667 5666 5673 5669 5664 5659 5656 5653 5649 5646 5642 5639 5635 5631 5627 5624 5622 5619 5615 5611 5608 5604 5600 5596 5592 5588 5584 5581 5578 5575 5572 5569 5567 5565 5563
5659 5671 5673 5665 5675 5676 5675 5675 5670 5664 5668 5667 5663 5659 5655 5652 5649 5646 5643 5639 5635 5631 5628 5624 5621 5619 5615 5611 5607 5604 5601 5597 5593 5590 5586 5582 5578 5575 5572 5569 5567 5564 5563 5561
5652 5660 5652 5668 5684 5683 5676 5674 5674 5672 5670 5665 5662 5657 5653 5649 5646 5643 5640 5636 5632 5627 5623 5619 5617 5614 5611 5608 5603 5600 5597 5594 5591 5587 5583 5579 5576 5573 5570 5568 5566 5563 5561 5559
5643 5646 5655 5670 5680 5679 5673 5670 5673 5670 5666 5660 5656 5652 5647 5647 5645 5642 5639 5635 5630 5626 5621 5617 5613 5610 5607 5603 5600 5597 5595 5592 5589 5585 5582 5578 5575 5572 5569 5567 5565 5563 5561 5559
5644 5645 5646 5665 5682 5684 5676 5663 5671 5668 5661 5655 5652 5644 5644 5645 5642 5638 5634 5629 5625 5621 5617 5614 5610 5607 5603 5599 5596 5594 5592 5590 5587 5584 5581 5578 5574 5571 5569 5566 5564 5562 5561 5559
5643 5643 5652 5672 5680 5679 5658 5660 5670 5666 5660 5654 5650 5647 5645 5643 5638 5634 5630 5626 5623 5619 5615 5612 5607 5603 5599 5596 5594 5592 5590 5587 5585 5582 5580 5577 5574 5571 5568 5566 5564 5562 5561 5560
5641 5641 5650 5676 5675 5668 5665 5670 5667 5663 5659 5652 5647 5644 5641 5638 5634 5629 5625 5622 5620 5616 5612 5608 5604 5600 5596 5593 5592 5590 5587 5585 5583 5581 5579 5577 5573 5570 5568 5566 5563 5562 5561 5560
5654 5656 5667 5671 5673 5673 5670 5667 5664 5660 5656 5650 5643 5639 5636 5632 5628 5624 5621 5618 5616 5613 5608 5604 5601 5599 5595 5592 5590 5588 5585 5583 5581 5580 5577 5575 5572 5570 5568 5565 5563 5562 5561 5560
5656 5663 5668 5670 5671 5671 5669 5666 5663 5660 5654 5648 5641 5636 5632 5627 5623 5619 5616 5614 5611 5608 5605 5601 5598 5596 5595 5592 5590 5587 5584 5582 5580 5578 5576 5574 5572 5570 5568 5566 5564 5563 5562 5561
5656 5663 5667 5670 5669 5668 5665 5663 5659 5655 5651 5645 5639 5633 5628 5623 5619 5616 5613 5610 5607 5605 5603 5600 5597 5595 5594 5592 5589 5586 5584 5582 5579 5577 5575 5573 5572 5570 5569 5568 5566 5565 5564 5562
5661 5668 5665 5667 5669 5667 5663 5660 5656 5652 5645 5641 5637 5631 5625 5620 5616 5613 5610 5607 5605 5603 5602 5599 5597 5595 5593 5591 5589 5586 5583 5581 5579 5577 5575 5574 5572 5572 5572 5570 5569 5568 5567 5565
5674 5673 5670 5671 5668 5667 5663 5658 5654 5650 5645 5638 5633 5629 5624 5618 5614 5611 5608 5606 5604 5602 5601 5599 5596 5595 5593 5591 5588 5586 5584 5582 5580 5578 5577 5575 5574 5573 5572 5573 5573 5572 5571 5570
5676 5673 5668 5667 5665 5664 5661 5656 5651 5646 5641 5636 5631 5627 5622 5617 5613 5610 5608 5606 5604 5602 5600 5598 5596 5595 5593 5591 5589 5587 5585 5584 5581 5580 5578 5577 5576 5574 5573 5573 5574 5575 5575 5574
5677 5677 5672 5669 5665 5661 5657 5652 5646 5641 5636 5632 5628 5625 5621 5617 5614 5611 5608 5606 5603 5601 5600 5598 5596 5595 5594 5592 5590 5588 5586 5585 5583 5582 5580 5579 5577 5576 5575 5575 5574 5575 5576 5577
5675 5673 5671 5666 5662 5658 5654 5649 5644 5639 5635 5631 5627 5624 5621 5618 5615 5612 5609 5606 5603 5601 5600 5599 5597 5597 5596 5594 5591 5590 5588 5587 5585 5584 5583 5581 5580 5579 5578 5578 5577 5577 5577 5578
5674 5669 5667 5663 5661 5657 5654 5651 5646 5641 5637 5632 5629 5625 5622 5618 5614 5611 5609 5608 5606 5604 5602 5601 5600 5599 5597 5595 5593 5592 5590 5589 5588 5586 5585 5584 5583 5582 5581 5580 5580 5580 5580 5581
5684 5680 5676 5671 5665 5659 5655 5651 5647 5643 5638 5635 5630 5626 5622 5619 5616 5614 5611 5609 5606 5605 5604 5603 5602 5601 5599 5597 5595 5594 5592 5591 5589 5588 5587 5586 5585 5584 5583 5582 5582 5582 5583 5583
5683 5679 5675 5672 5668 5662 5657 5652 5648 5644 5640 5636 5632 5628 5625 5622 5619 5616 5613 5610 5608 5607 5606 5606 5604 5602 5601 5599 5597 5595 5593 5592 5591 5590 5589 5588 5587 5586 5585 5584 5584 5584 5584 5584
5683 5680 5676 5672 5668 5663 5658 5654 5649 5644 5641 5638 5633 5629 5626 5624 5621 5618 5615 5613 5612 5612 5610 5608 5606 5604 5603 5601 5599 5597 5596 5594 5593 5592 5590 5589 5588 5588 5587 5587 5586 5586 5586 5585
5683 5679 5675 5671 5667 5664 5660 5656 5651 5646 5643 5640 5636 5632 5629 5626 5623 5620 5617 5616 5616 5615 5613 5610 5609 5607 5606 5604 5602 5600 5598 5596 5595 5594 5592 5591 5590 5589 5588 5588 5588 5587 5587 5586
5682 5679 5676 5672 5667 5663 5660 5657 5653 5649 5645 5641 5638 5635 5631 5628 5625 5623 5621 5621 5620 5618 5615 5613 5612 5610 5609 5606 5604 5602 5600 5599 5597 5595 5594 5592 5591 5590 5589 5589 5588 5587 5587 5586
5683 5680 5676 5673 5669 5664 5660 5657 5654 5651 5647 5644 5641 5638 5634 5631 5629 5626 5624 5624 5623 5620 5618 5616 5615 5613 5610 5608 5606 5604 5602 5600 5599 5597 5595 5594 5592 5591 5590 5589 5588 5587 5586 5586
5682 5679 5676 5672 5669 5664 5659 5657 5655 5652 5650 5647 5644 5641 5637 5633 5630 5630 5630 5628 5625 5623 5621 5619 5616 5614 5611 5609 5607 5605 5603 5601 5600 5598 5597 5595 5594 5592 5591 5589 5588 5587 5586 5585
5682 5679 5675 5671 5668 5665 5662 5658 5655 5652 5649 5646 5644 5642 5640 5638 5636 5634 5632 5630 5627 5625 5623 5621 5618 5615 5612 5610 5608 5606 5605 5603 5601 5599 5598 5596 5594 5593 5591 5590 5588 5587 5585 5584
5680 5678 5676 5673 5671 5667 5663 5659 5656 5652 5650 5647 5644 5643 5641 5639 5638 5636 5633 5632 5630 5627 5624 5622 5620 5617 5614 5612 5610 5608 5606 5604 5602 5600 5598 5596 5595 5593 5591 5589 5588 5586 5584 5582
5678 5675 5672 5670 5668 5667 5664 5661 5658 5655 5652 5650 5647 5645 5643 5641 5638 5636 5634 5632 5630 5628 5626 5624 5621 5618 5616 5613 5611 5609 5607 5605 5603 5600 5598 5596 5594 5592 5590 5588 5586 5584 5581 5578